Regional Weather Roundup
Issued by NWS Northern Indiana

Home | Current Version | Previous Version | Text Only | Print | Product List | Glossary On
Versions: 1 2 3 4 5 6 7 8 9 10 11 12 13 14 15 16 17 18 19 20 21 22 23 24 25 26 27 28 29 30 31 32 33 34 35 36 37 38 39 40 41 42 43 44 45 46 47 48 49 50
000
ASUS43 KIWX 251510
RWRIWX

KIWX WEATHER ROUNDUP
NATIONAL WEATHER SERVICE NORTHERN INDIANA
1100 AM EDT WED MAY 25 2016

NOTE: "FAIR" INDICATES FEW OR NO CLOUDS BELOW 12,000 FEET WITH NO
SIGNIFICANT WEATHER AND/OR OBSTRUCTIONS TO VISIBILITY.

* THESE STATIONS ARE NOT UNDER NWS QUALITY CONTROL. THEY ALSO MAY NOT
  REPORT WEATHER SUCH AS PRECIPITATION OR FOG.

INZ001>027-251600-
NORTHERN INDIANA

CITY           SKY/WX    TMP DP  RH WIND       PRES   REMARKS
GARY*          MOSUNNY   77  70  78 S12       30.03
VALPARAISO     MOSUNNY   77  63  61 S9        30.04F
MICHIGAN CITY* SUNNY     77  61  57 S8        30.04F
LAPORTE*       SUNNY     80  62  54 S10G16    30.05F
KNOX*          SUNNY     77  46  33 S9G16     30.05S
SOUTH BEND     SUNNY     78  62  57 S9        30.06S
ELKHART*       SUNNY     77  66  69 S6        30.06F
GOSHEN         SUNNY     78  59  51 SE9       30.06F
MONTICELLO*    SUNNY     76  57  52 SE7       30.05F
LOGANSPORT*    SUNNY     75  59  57 SW13G18   30.08S
ROCHESTER*     SUNNY     79  61  53 S6        30.07F
WARSAW*        SUNNY     77  61  57 S3        30.07S
ANGOLA*        SUNNY     79  61  53 S7        30.08F
FORT WAYNE     CLOUDY    76  58  53 S10       30.09F
HUNTINGTON*    PTSUNNY   76  60  57 S7        30.09S
PERU/GRISSOM   SUNNY     76  62  62 SW12      30.06F
MARION*        CLOUDY    71  58  62 S9        30.10S

$$
INZ028>050-251600-
CENTRAL INDIANA

CITY           SKY/WX    TMP DP  RH WIND       PRES   REMARKS
LAFAYETTE      SUNNY     75  60  59 SW8       30.04F
KOKOMO*        MOSUNNY   75  61  60 SW10G17   30.08F
MUNCIE*        CLOUDY    73  56  54 S10       30.10F
INDIANAPOLIS   PTSUNNY   76  62  62 S10       30.06F

$$
MIZ043>046-050>051-056>058-064>065-071>073-077>080-251600-
SOUTHWEST LOWER MICHIGAN

CITY           SKY/WX    TMP DP  RH WIND       PRES   REMARKS
BATTLE CREEK   SUNNY     77  60  55 SW6       30.07F
BENTON HARBOR  SUNNY     79  63  57 VRB6      30.03F
COLDWATER*     SUNNY     78  59  52 S3        30.08F
HILLSDALE*     SUNNY     77  51  40 S6        30.10F
HOLLAND        SUNNY     80  64  58 VRB5      30.04F
GRAND RAPIDS   MOSUNNY   81  61  50 SW9       30.05F
KALAMAZOO      SUNNY     79  60  52 S9        30.06F
STURGIS*       SUNNY     77  61  56 S6        30.06F
THREE RIVERS*  FAIR      78  59  51 S6        30.07F

$$
OHZ001>008-015>018-024>025-251600-
NORTHWEST OHIO

CITY           SKY/WX    TMP DP  RH WIND       PRES   REMARKS
WAUSEON*         N/A     81  73  78 SW13      30.10S
DEFIANCE       PTSUNNY   79  55  43 SW13      30.10F
FINDLAY        MOSUNNY   80  56  43 SW15      30.12R
TOLEDO EXPRESS SUNNY     80  55  42 SW9       30.10R
TOLEDO METCALF SUNNY     81  55  40 SW13      30.11R
LIMA           CLOUDY    74  58  57 SW15      30.14R

$$
AND FOR LAKE MICHIGAN COASTAL AND OPEN LAKE BUOY OBSERVATIONS

STATION/POSITION TEMP    WIND        PRES    VSBY  WAVE
                 AIR SEA DIR/SP/G                  HT/PER
                 (F)     (DEG/KT/KT) (MB)    (MI)  (FT/S)
CALUMET HARBOR           180/  9/ 12   N/A
MICHIGAN CITY     73     170/  8/  9   N/A
BURNS HARBOR      74     200/ 10/ 15 1017.3F
SAINT JOSEPH      71     200/  2/  4 1017.3F
SOUTH LAKE BUOY   54 49  150/  6/  6 1016.2F         1
4 MI NW BRIDGMAN  67 59  260/  2/  4   N/A           0
MICHIGAN CITY     67 59  230/  4/  6   N/A           0

$$
&&




USA.gov is the U.S. government's official web portal to all federal, state and local government web resources and services.